Location: Ferintosh
(52.7647°N, 112.9692°W)
Time: 21:23:21
(UTC+00:00)

Transit 2A Rocket - Pass Details

Date: 28 May 2024
Orbit: 583 x 910 km, 66.7° (Epoch: 12 June)

Event Time Altitude Azimuth Distance (km) Brightness Sun altitude
Rises 17:43:57 0° 319° (NW) 3,392 8.0 52.9°
Reaches altitude 10° 17:46:22 10° 321° (NW) 2,495 7.4 53.1°
Maximum altitude 17:52:13 82° 49° (NE) 907 6.4 53.7°
Drops below altitude 10° 17:58:19 10° 138° (SE) 2,590 8.5 54.3°
Sets 18:00:52 0° 139° (SE) 3,531 9.0 54.5°
